FW9009 Weather Reports


time (UTC)temp
C
wind
direction
speed
KPH
gust
KPH
rain 1hr
cm
rain 24hr
cm
rain mn
cm
humidity
%
barometer
mb
20260510180506 25 68 0.0 1.6 0.00 0.00 0.00 55 1012.0
20260510180004 25 317 3.2 3.2 0.00 0.00 0.00 53 1012.1
20260510175459 25 67 0.0 1.6 0.00 0.00 0.00 55 1012.0
20260510174954 25 65 1.6 3.2 0.00 0.00 0.00 55 1012.0
20260510174453 24 331 3.2 3.2 0.00 0.00 0.00 55 1012.1
20260510173949 25 8 4.8 4.8 0.00 0.00 0.00 56 1012.0
20260510173445 25 25 1.6 3.2 0.00 0.00 0.00 54 1012.0
20260510172942 25 44 1.6 1.6 0.00 0.00 0.00 54 1012.2
20260510172437 24 62 0.0 1.6 0.00 0.00 0.00 54 1011.8
20260510171934 25 61 0.0 1.6 0.00 0.00 0.00 52 1012.1
20260510171431 25 61 0.0 1.6 0.00 0.00 0.00 52 1012.2
20260510170928 25 71 0.0 1.6 0.00 0.00 0.00 52 1012.1
20260510170424 25 26 3.2 3.2 0.00 0.00 0.00 50 1012.0
20260510165920 25 10 4.8 4.8 0.00 0.00 0.00 52 1012.0
20260510165416 25 39 3.2 3.2 0.00 0.00 0.00 55 1012.3
20260510164913 23 63 3.2 4.8 0.00 0.00 0.00 53 1012.2
20260510164410 24 4 4.8 4.8 0.00 0.00 0.00 53 1012.0
20260510163905 24 90 0.0 0.0 0.00 0.00 0.00 56 1012.0
20260510163401 23 3 1.6 1.6 0.00 0.00 0.00 57 1012.1
20260510162855 23 0 4.8 4.8 0.00 0.00 0.00 55 1012.0
20260510162354 23 62 0.0 0.0 0.00 0.00 0.00 55 1012.2
20260510161848 23 59 1.6 1.6 0.00 0.00 0.00 59 1012.2
20260510161345 23 54 3.2 3.2 0.00 0.00 0.00 55 1012.2
20260510160842 23 32 3.2 4.8 0.00 0.00 0.00 56 1012.3
20260510160338 23 32 1.6 3.2 0.00 0.00 0.00 59 1012.2
20260510155832 23 58 0.0 1.6 0.00 0.00 0.00 56 1012.1
20260510155330 22 82 0.0 0.0 0.00 0.00 0.00 59 1012.2
20260510154825 22 51 3.2 3.2 0.00 0.00 0.00 57 1012.1
20260510154321 22 46 1.6 3.2 0.00 0.00 0.00 59 1012.1
20260510153816 22 338 3.2 4.8 0.00 0.00 0.00 58 1012.2
20260510153312 22 48 3.2 3.2 0.00 0.00 0.00 57 1012.2
20260510152809 22 351 3.2 3.2 0.00 0.00 0.00 58 1012.2
20260510152307 22 37 1.6 3.2 0.00 0.00 0.00 60 1012.4
20260510151803 22 89 0.0 1.6 0.00 0.00 0.00 59 1012.3
20260510151300 22 116 1.6 1.6 0.00 0.00 0.00 61 1012.3
20260510150756 22 37 3.2 3.2 0.00 0.00 0.00 61 1012.2
20260510150252 22 9 3.2 3.2 0.00 0.00 0.00 65 1012.3
20260510145748 21 65 0.0 0.0 0.00 0.00 0.00 64 1012.1
20260510145245 21 69 3.2 3.2 0.00 0.00 0.00 65 1012.0
20260510144741 21 65 0.0 1.6 0.00 0.00 0.00 65 1012.0
20260510144238 21 15 3.2 3.2 0.00 0.00 0.00 67 1012.2
20260510143737 21 57 1.6 1.6 0.00 0.00 0.00 70 1012.0
20260510143234 20 82 0.0 0.0 0.00 0.00 0.00 70 1012.0
20260510142731 20 100 0.0 0.0 0.00 0.00 0.00 73 1012.3
20260510142228 20 72 0.0 1.6 0.00 0.00 0.00 71 1012.2
20260510141725 20 44 0.0 1.6 0.00 0.00 0.00 73 1012.5
20260510141223 19 21 3.2 3.2 0.00 0.00 0.00 74 1012.4
20260510140719 19 34 3.2 3.2 0.00 0.00 0.00 75 1012.4
20260510140214 18 30 3.2 3.2 0.00 0.00 0.00 79 1012.4
20260510135709 18 59 1.6 1.6 0.00 0.00 0.00 78 1012.1
20260510135205 18 35 1.6 1.6 0.00 0.00 0.00 82 1012.0
20260510134702 17 80 0.0 0.0 0.00 0.00 0.00 82 1012.3
20260510134159 17 39 1.6 3.2 0.00 0.00 0.00 82 1012.4
20260510133655 17 65 4.8 4.8 0.00 0.00 0.00 84 1012.1
20260510133151 16 65 0.0 1.6 0.00 0.00 0.00 86 1012.2
20260510132647 16 60 0.0 0.0 0.00 0.00 0.00 87 1012.4
20260510132144 16 71 0.0 0.0 0.00 0.00 0.00 87 1012.4
20260510131642 16 67 1.6 1.6 0.00 0.00 0.00 88 1012.2
20260510131139 15 78 0.0 0.0 0.00 0.00 0.00 89 1012.3
20260510130636 14 111 1.6 1.6 0.00 0.00 0.00 93 1012.5
20260510130133 13 117 0.0 0.0 0.00 0.00 0.00 94 1012.3
20260510125629 13 97 0.0 1.6 0.00 0.00 0.00 96 1012.5
20260510125126 13 109 0.0 1.6 0.00 0.00 0.00 97 1012.7
20260510124623 12 90 0.0 0.0 0.00 0.00 0.00 99 1012.3
20260510124120 12 68 0.0 0.0 0.00 0.00 0.00 99 1012.5
20260510123615 12 120 0.0 1.6 0.00 0.00 0.00 99 1012.4
20260510123111 12 90 0.0 0.0 0.00 0.00 0.00 99 1012.4
20260510122607 12 111 0.0 0.0 0.00 0.00 0.00 99 1012.4
20260510122103 11 89 0.0 0.0 0.00 0.00 0.00 99 1012.2
20260510121600 11 65 0.0 0.0 0.00 0.00 0.00 99 1012.2
20260510121057 11 66 0.0 0.0 0.00 0.00 0.00 99 1012.1
20260510120555 11 67 0.0 0.0 0.00 0.00 0.00 99 1012.1
20260510120050 11 69 0.0 0.0 0.00 0.00 0.00 99 1011.8
20260510115547 11 62 0.0 0.0 0.00 0.00 0.00 99 1012.0
20260510115044 11 65 0.0 0.0 0.00 0.00 0.00 99 1011.8
20260510114540 10 90 0.0 0.0 0.00 0.00 0.00 99 1011.9
20260510114036 10 90 0.0 0.0 0.00 0.00 0.00 99 1011.8
20260510113531 10 90 0.0 0.0 0.00 0.00 0.00 99 1011.6
20260510113030 10 91 0.0 0.0 0.00 0.00 0.00 99 1011.5
20260510112526 10 91 0.0 0.0 0.00 0.00 0.00 99 1011.5
20260510112022 10 91 0.0 0.0 0.00 0.00 0.00 99 1011.4
20260510111519 10 91 0.0 0.0 0.00 0.00 0.00 99 1011.5
20260510111015 10 67 0.0 0.0 0.00 0.00 0.00 99 1011.6
20260510110511 10 66 0.0 0.0 0.00 0.00 0.00 99 1011.6
20260510110008 10 67 0.0 0.0 0.00 0.00 0.00 99 1011.6
20260510105502 9 95 0.0 0.0 0.00 0.00 0.00 99 1011.5
20260510104958 9 95 0.0 0.0 0.00 0.00 0.00 99 1011.5
20260510104455 9 95 0.0 0.0 0.00 0.00 0.00 99 1011.3
20260510103951 9 95 0.0 0.0 0.00 0.00 0.00 99 1011.1
20260510103449 8 95 0.0 0.0 0.00 0.00 0.00 99 1011.1
20260510102944 8 96 0.0 0.0 0.00 0.00 0.00 99 1011.0
20260510102440 8 96 0.0 0.0 0.00 0.00 0.00 99 1011.1
20260510101937 8 96 0.0 0.0 0.00 0.00 0.00 99 1011.2
20260510101435 8 96 1.6 1.6 0.00 0.00 0.00 99 1011.0
20260510100933 8 97 0.0 0.0 0.00 0.00 0.00 99 1010.7
20260510100429 8 97 0.0 0.0 0.00 0.00 0.00 99 1010.7
20260510095925 8 97 0.0 0.0 0.00 0.00 0.00 99 1010.8
20260510095421 8 96 0.0 0.0 0.00 0.00 0.00 99 1010.8
20260510094920 8 96 0.0 0.0 0.00 0.00 0.00 99 1010.6
20260510094415 8 96 0.0 0.0 0.00 0.00 0.00 99 1010.5
20260510093911 8 97 0.0 0.0 0.00 0.00 0.00 99 1010.7
20260510093407 8 97 0.0 0.0 0.00 0.00 0.00 99 1010.7
20260510092904 8 97 0.0 0.0 0.00 0.00 0.00 99 1010.4
20260510092401 8 96 0.0 0.0 0.00 0.00 0.00 99 1010.5
20260510091855 8 96 0.0 0.0 0.00 0.00 0.00 99 1010.5
20260510091352 8 98 0.0 0.0 0.00 0.00 0.00 99 1010.4
20260510090849 8 76 0.0 0.0 0.00 0.00 0.00 99 1010.6
20260510090345 8 114 0.0 0.0 0.00 0.00 0.00 99 1010.4
20260510085841 8 57 0.0 0.0 0.00 0.00 0.00 99 1011.2
20260510085336 8 88 0.0 0.0 0.00 0.00 0.00 99 1010.7
20260510084832 8 29 0.0 0.0 0.00 0.00 0.00 99 1010.4
20260510084330 8 126 1.6 3.2 0.00 0.00 0.00 99 1010.6
20260510083826 7 84 0.0 0.0 0.00 0.00 0.00 99 1010.4
20260510083323 7 53 0.0 0.0 0.00 0.00 0.00 99 1011.4
20260510082818 7 118 0.0 0.0 0.00 0.00 0.00 99 1010.5
20260510082316 6 338 1.6 1.6 0.00 0.00 0.00 99 1010.7
20260510081814 6 354 4.8 4.8 0.00 0.00 0.00 99 1010.9
20260510081310 6 94 0.0 0.0 0.00 0.00 0.00 99 1010.2
20260510080807 6 94 0.0 0.0 0.00 0.00 0.00 99 1010.0
20260510080302 6 94 0.0 0.0 0.00 0.00 0.00 99 1009.9
20260510075759 6 93 0.0 0.0 0.00 0.00 0.00 99 1009.8
20260510075256 6 93 0.0 0.0 0.00 0.00 0.00 99 1009.9
20260510074753 6 94 0.0 0.0 0.00 0.00 0.00 99 1009.9
20260510074250 6 91 0.0 0.0 0.00 0.00 0.00 99 1010.3
20260510073746 6 91 0.0 0.0 0.00 0.00 0.00 99 1010.0
20260510073242 6 92 0.0 0.0 0.00 0.00 0.00 99 1009.9
20260510072737 6 91 0.0 0.0 0.00 0.00 0.00 99 1009.9
20260510072234 6 91 0.0 0.0 0.00 0.00 0.00 99 1009.9
20260510071731 6 92 0.0 0.0 0.00 0.00 0.00 99 1009.9
20260510071228 6 90 0.0 0.0 0.00 0.00 0.00 99 1009.7
20260510070726 6 90 0.0 0.0 0.00 0.00 0.00 99 1009.6
20260510070223 6 90 0.0 0.0 0.00 0.00 0.00 99 1009.6
20260510065718 6 90 0.0 0.0 0.00 0.00 0.00 99 1009.5
20260510065214 6 90 0.0 0.0 0.00 0.00 0.00 99 1009.5
20260510064711 6 90 0.0 0.0 0.00 0.00 0.00 99 1009.5
20260510064209 6 90 0.0 0.0 0.00 0.00 0.00 99 1009.3
20260510063705 6 90 0.0 0.0 0.00 0.00 0.00 99 1009.2
20260510063201 7 90 0.0 0.0 0.00 0.00 0.00 99 1009.4
20260510062658 7 90 0.0 0.0 0.00 0.00 0.00 99 1009.5
20260510062154 7 90 0.0 0.0 0.00 0.00 0.00 99 1009.5
20260510061649 7 91 0.0 0.0 0.00 0.00 0.00 99 1009.5
20260510061147 7 90 0.0 0.0 0.00 0.00 0.00 99 1009.8
20260510060643 7 90 0.0 0.0 0.00 0.00 0.00 99 1009.5
20260510060140 7 90 0.0 0.0 0.00 0.00 0.00 99 1009.5
20260510055636 7 90 0.0 0.0 0.00 0.00 0.00 99 1009.6
20260510055134 7 90 0.0 0.0 0.00 0.00 0.00 99 1009.5
20260510054629 7 91 0.0 0.0 0.00 0.00 0.00 99 1009.4
20260510054125 7 90 0.0 0.0 0.00 0.00 0.00 99 1009.6
20260510053624 7 90 0.0 0.0 0.00 0.00 0.00 99 1009.8
20260510053121 7 90 0.0 0.0 0.00 0.00 0.00 99 1009.9
20260510052617 7 90 0.0 0.0 0.00 0.00 0.00 99 1009.8
20260510052114 7 90 0.0 0.0 0.00 0.00 0.00 99 1010.0
20260510051609 7 90 0.0 0.0 0.00 0.00 0.00 99 1009.9
20260510051107 7 90 0.0 0.0 0.00 0.00 0.00 99 1010.0
20260510050604 7 90 0.0 0.0 0.00 0.00 0.00 99 1010.0
20260510050100 7 90 0.0 0.0 0.00 0.00 0.00 99 1009.9
20260510045558 7 90 0.0 0.0 0.00 0.00 0.00 99 1010.1
20260510045053 7 90 0.0 0.0 0.00 0.00 0.00 99 1010.0
20260510044550 7 90 0.0 0.0 0.00 0.00 0.00 99 1009.9
20260510044048 7 90 0.0 0.0 0.00 0.00 0.00 99 1009.9
20260510043543 7 90 0.0 0.0 0.00 0.00 0.00 99 1010.1
20260510043039 7 91 0.0 0.0 0.00 0.00 0.00 99 1009.9
20260510042538 8 91 0.0 0.0 0.00 0.00 0.00 99 1010.1
20260510042034 8 91 0.0 0.0 0.00 0.00 0.00 99 1010.1
20260510041532 8 91 0.0 0.0 0.00 0.00 0.00 99 1010.3
20260510041029 8 91 0.0 0.0 0.00 0.00 0.00 99 1010.1
20260510040525 8 91 0.0 0.0 0.00 0.00 0.00 99 1010.3
20260510040021 8 91 0.0 0.0 0.00 0.03 0.03 99 1010.1
20260510035518 8 91 0.0 0.0 0.00 0.03 0.03 99 1010.2
20260510035017 8 91 0.0 0.0 0.00 0.03 0.03 99 1010.2
20260510034516 8 91 0.0 0.0 0.00 0.03 0.03 99 1010.0
20260510034012 8 91 0.0 0.0 0.00 0.03 0.03 99 1010.0
20260510033508 8 91 0.0 0.0 0.00 0.03 0.03 99 1010.0
20260510033006 8 91 0.0 0.0 0.00 0.03 0.03 99 1010.1
20260510032502 8 91 0.0 0.0 0.00 0.03 0.03 99 1010.2
20260510031957 8 90 0.0 0.0 0.00 0.03 0.03 99 1009.9
20260510031453 8 90 0.0 0.0 0.00 0.03 0.03 99 1009.9
20260510030949 8 90 0.0 0.0 0.00 0.03 0.03 99 1010.0
20260510030444 8 91 0.0 0.0 0.00 0.03 0.03 99 1010.0
20260510025942 8 86 0.0 0.0 0.00 0.03 0.03 99 1009.6
20260510025439 9 86 0.0 0.0 0.00 0.03 0.03 99 1009.8
20260510024937 9 86 0.0 0.0 0.00 0.03 0.03 99 1009.7
20260510024433 9 87 0.0 0.0 0.00 0.03 0.03 99 1009.6
20260510023929 9 87 0.0 0.0 0.00 0.03 0.03 99 1009.8
20260510023425 9 99 0.0 0.0 0.00 0.03 0.03 99 1009.6
20260510022922 9 99 0.0 0.0 0.00 0.03 0.03 98 1009.7
20260510022421 9 99 0.0 0.0 0.00 0.03 0.03 98 1009.7
20260510021920 9 99 0.0 0.0 0.00 0.03 0.03 98 1009.9
20260510021419 10 99 0.0 0.0 0.00 0.03 0.03 98 1009.8
20260510020915 10 99 0.0 0.0 0.00 0.03 0.03 98 1009.9
20260510020410 10 99 0.0 0.0 0.00 0.03 0.03 98 1009.7
20260510015906 10 99 0.0 0.0 0.00 0.03 0.03 98 1009.8
20260510015402 10 99 0.0 0.0 0.00 0.03 0.03 98 1009.6
20260510014857 10 99 0.0 0.0 0.00 0.03 0.03 98 1009.7
20260510014355 10 99 0.0 0.0 0.00 0.03 0.03 98 1009.6
20260510013851 10 99 0.0 0.0 0.00 0.03 0.03 98 1009.5
20260510013346 10 99 0.0 0.0 0.00 0.03 0.03 97 1009.3
20260510012841 10 99 0.0 0.0 0.00 0.03 0.03 97 1009.4
20260510012342 10 99 0.0 0.0 0.00 0.03 0.03 97 1009.5
20260510011837 10 99 0.0 0.0 0.00 0.03 0.03 97 1009.5
20260510011332 11 99 0.0 0.0 0.00 0.03 0.03 97 1009.4
20260510010829 11 99 0.0 0.0 0.00 0.03 0.03 96 1009.2
20260510010326 11 99 0.0 0.0 0.00 0.03 0.03 96 1009.4
20260510005822 11 99 0.0 0.0 0.00 0.03 0.03 96 1009.1
20260510005319 11 99 0.0 0.0 0.00 0.03 0.03 96 1009.1
20260510004817 11 99 0.0 0.0 0.00 0.03 0.03 96 1009.1
20260510004314 11 99 0.0 0.0 0.00 0.03 0.03 95 1009.1
20260510003812 12 99 0.0 0.0 0.00 0.03 0.03 95 1009.0
20260510003308 12 99 0.0 0.0 0.00 0.03 0.03 95 1009.2
20260510002807 12 99 0.0 0.0 0.00 0.03 0.03 94 1009.1
20260510002307 12 99 0.0 0.0 0.00 0.03 0.03 94 1009.1
20260510001801 13 99 0.0 0.0 0.00 0.03 0.03 93 1009.1
20260510001259 13 99 0.0 0.0 0.00 0.03 0.03 93 1009.3
20260510000754 13 99 0.0 0.0 0.00 0.03 0.03 93 1009.1
20260510000253 13 99 0.0 0.0 0.00 0.03 0.03 92 1008.9
20260509235750 13 99 0.0 0.0 0.00 0.03 0.03 90 1009.0
20260509235246 13 100 0.0 0.0 0.00 0.03 0.03 90 1009.2
20260509234741 14 100 0.0 0.0 0.00 0.03 0.03 89 1009.3
20260509234239 14 100 0.0 1.6 0.00 0.03 0.03 88 1009.1
20260509233737 14 99 0.0 0.0 0.00 0.03 0.03 87 1008.9
20260509233234 14 99 0.0 1.6 0.00 0.03 0.03 87 1009.0
20260509232730 14 86 0.0 0.0 0.00 0.03 0.03 87 1008.8
20260509232227 14 86 0.0 0.0 0.00 0.03 0.03 87 1009.0
20260509231724 14 86 0.0 0.0 0.00 0.03 0.03 87 1009.2
20260509231221 15 86 0.0 0.0 0.00 0.03 0.03 87 1009.0
20260509230719 15 85 0.0 0.0 0.00 0.03 0.03 87 1008.9
20260509230215 14 95 0.0 1.6 0.00 0.03 0.03 87 1009.0
20260509225710 15 68 0.0 1.6 0.00 0.03 0.03 87 1008.8
20260509225206 15 108 1.6 1.6 0.00 0.03 0.03 87 1008.7
20260509224702 15 98 0.0 0.0 0.00 0.03 0.03 88 1008.8
20260509224159 15 79 0.0 1.6 0.00 0.03 0.03 88 1009.2
20260509223656 15 112 0.0 0.0 0.00 0.03 0.03 88 1009.0
20260509223153 15 112 0.0 1.6 0.00 0.03 0.03 88 1009.1
20260509222651 15 97 0.0 0.0 0.00 0.03 0.03 89 1009.0
20260509222146 15 77 0.0 0.0 0.00 0.03 0.03 88 1009.0
20260509221642 15 95 1.6 1.6 0.00 0.03 0.03 88 1009.0
20260509221137 14 99 0.0 0.0 0.00 0.03 0.03 88 1009.1
20260509220634 14 55 1.6 3.2 0.00 0.03 0.03 89 1009.1
20260509220130 14 109 0.0 1.6 0.00 0.03 0.03 88 1009.0
20260509215626 15 118 1.6 3.2 0.00 0.03 0.03 89 1009.0
20260509215123 14 103 0.0 0.0 0.00 0.03 0.03 89 1009.2
20260509214620 14 103 0.0 1.6 0.00 0.03 0.03 90 1009.0
20260509214117 14 103 0.0 0.0 0.00 0.03 0.03 90 1009.1
20260509213613 14 103 0.0 1.6 0.00 0.03 0.03 90 1009.0
20260509213109 14 77 0.0 0.0 0.00 0.03 0.03 91 1009.0
20260509212607 14 68 0.0 1.6 0.00 0.03 0.03 91 1009.2
20260509212104 14 66 0.0 1.6 0.00 0.03 0.03 91 1009.0
20260509211559 13 91 0.0 0.0 0.00 0.03 0.03 91 1009.1
20260509211056 13 77 0.0 0.0 0.00 0.03 0.03 92 1008.8
20260509210553 13 63 0.0 0.0 0.00 0.03 0.03 93 1008.9
20260509210049 13 65 0.0 0.0 0.00 0.03 0.03 93 1008.9
20260509205544 14 66 0.0 0.0 0.00 0.03 0.03 93 1008.8
20260509205039 14 65 0.0 0.0 0.00 0.03 0.03 91 1009.1
20260509204536 14 59 0.0 0.0 0.00 0.03 0.03 89 1008.8
20260509204032 14 76 0.0 0.0 0.18 0.03 0.03 88 1008.9
20260509203528 15 74 0.0 0.0 0.18 0.03 0.03 85 1008.9
20260509203027 15 70 0.0 0.0 0.18 0.03 0.03 84 1009.2
20260509202521 15 66 0.0 0.0 0.00 0.00 0.00 82 1009.3
20260509202017 15 53 1.6 1.6 0.00 0.00 0.00 80 1009.0
20260509201512 15 69 1.6 1.6 0.00 0.00 0.00 79 1009.1
20260509201009 16 74 0.0 0.0 0.00 0.00 0.00 78 1008.8
20260509200504 15 36 0.0 1.6 0.00 0.00 0.00 80 1008.8
20260509200001 16 330 3.2 4.8 0.00 0.00 0.00 78 1009.1
20260509195455 16 88 4.8 4.8 0.00 0.00 0.00 77 1008.9
20260509194950 15 42 1.6 3.2 0.00 0.00 0.00 79 1009.1
20260509194446 15 57 1.6 3.2 0.00 0.00 0.00 82 1009.0
20260509193943 15 359 1.6 3.2 0.00 0.00 0.00 81 1009.0
20260509193442 15 81 0.0 0.0 0.00 0.00 0.00 82 1009.3
20260509192939 15 86 0.0 1.6 0.00 0.00 0.00 82 1009.3
20260509192436 15 41 0.0 1.6 0.00 0.00 0.00 82 1009.3
20260509191931 14 267 3.2 3.2 0.00 0.00 0.00 83 1009.7
20260509191426 15 325 4.8 4.8 0.00 0.00 0.00 83 1009.6
20260509190922 14 341 3.2 4.8 0.00 0.00 0.00 83 1009.6
20260509190420 15 329 3.2 4.8 0.00 0.00 0.00 84 1009.8
20260509185917 14 62 0.0 1.6 0.00 0.00 0.00 84 1009.8
20260509185415 14 96 1.6 1.6 0.00 0.00 0.00 84 1010.2
20260509184911 14 28 3.2 3.2 0.00 0.00 0.00 83 1010.1
20260509184408 14 50 1.6 1.6 0.00 0.00 0.00 83 1010.2
20260509183905 14 32 3.2 3.2 0.00 0.00 0.00 81 1010.2
20260509183359 15 8 3.2 3.2 0.00 0.00 0.00 81 1010.0
20260509182856 15 45 3.2 3.2 0.00 0.00 0.00 82 1010.2
20260509182353 15 57 1.6 1.6 0.00 0.00 0.00 81 1010.4
20260509181850 15 38 3.2 4.8 0.00 0.00 0.00 81 1010.3
20260509181347 15 36 1.6 1.6 0.00 0.00 0.00 83 1010.2
20260509180845 15 41 1.6 1.6 0.00 0.00 0.00 83 1010.3